Location: Ostrava
(49.8330°N, 18.2830°E)
Time: 19:19:19
(UTC+02:00)

Lacrosse 5 - Visible Passes

Search period start: 26 September 2016 00:00
Search period end: 06 October 2016 00:00
Orbit: 716 x 722 km, 57.0° (Epoch: 17 September)

Date Brightness Start Highest point End Pass type
(mag) Time Alt. Az. Time Alt. Az. Time Alt. Az.
26 Sep 3.9 03:52:45 16° SSE 03:54:25 19° SE 03:57:52 10° E visible
26 Sep 2.0 05:31:58 12° SW 05:36:43 78° SE 05:41:47 10° ENE visible
27 Sep 4.5 03:01:53 10° ESE 03:01:53 10° ESE 03:02:12 10° ESE visible
27 Sep 2.5 04:41:06 27° SSW 04:43:35 50° SE 04:48:28 10° ENE visible
28 Sep 3.1 03:50:09 30° SE 03:50:35 31° SE 03:55:00 10° ENE visible
28 Sep 1.9 05:29:22 17° WSW 05:33:14 74° NNW 05:38:20 10° NE visible
29 Sep 4.2 02:59:09 16° ESE 02:59:09 16° ESE 03:01:08 10° E visible
29 Sep 1.9 04:38:22 43° SW 04:39:59 77° SE 04:45:05 10° ENE visible
30 Sep 2.5 03:47:18 48° ESE 03:47:18 48° ESE 03:51:45 10° ENE visible
30 Sep 2.2 05:26:30 20° W 05:29:52 55° NNW 05:34:52 10° NE visible
01 Oct 4.0 02:56:11 21° E 02:56:11 21° E 02:58:16 10° ENE visible
01 Oct 1.8 04:35:23 53° W 04:36:31 74° NNW 04:41:36 10° NE visible
01 Oct 2.8 06:15:21 10° WNW 06:20:05 38° N 06:24:50 10° ENE visible
02 Oct 2.3 03:44:14 58° ENE 03:44:14 58° ENE 03:48:22 10° ENE visible
02 Oct 2.5 05:23:26 20° WNW 05:26:35 44° NNW 05:31:27 10° ENE visible
03 Oct 4.0 02:53:03 23° ENE 02:53:03 23° ENE 02:55:03 10° ENE visible
03 Oct 2.1 04:32:15 48° WNW 04:33:09 55° NNW 04:38:09 10° NE visible
03 Oct 2.9 06:12:12 10° WNW 06:16:54 36° N 06:21:36 10° ENE visible
04 Oct 2.6 03:41:03 51° NE 03:41:03 51° NE 03:44:54 10° NE visible
04 Oct 2.8 05:20:15 19° WNW 05:23:22 38° N 05:28:07 10° ENE visible
05 Oct 4.0 02:49:50 22° ENE 02:49:50 22° ENE 02:51:39 10° ENE visible
05 Oct 2.5 04:29:02 40° NW 04:29:52 44° NNW 04:34:44 10° ENE visible
05 Oct 2.9 06:08:59 10° WNW 06:13:43 38° N 06:18:27 10° ENE visible
